Retour au catalogue

ORBCOMM FM 36 DEB

ActifLEO
NORAD 56437·DEBRIS·🇺🇸 United States

Lancé Dec 4, 1999 depuis Cape Canaveral Space Force Station

Loading…

Prochains Passages (prochaines 24 heures)

TLE

FraisSource: Space-Track

Époque: Sep 14, 2026, 11:58 UTC

1 56437U 99065N   26257.49885044  .00000240  00000-0  12109-3 0  9990
2 56437  44.9399  70.4506 0017157 146.1582 214.0364 14.39593796184611

Suivez ORBCOMM FM 36 DEB en temps réel avec AllMySat

Download on the App Store